SCP
-0 -0 -0 -0 -0 -0 -0 -0 -0 -0 -0 -0 -0 -0 -0 -0 -0 -0 -0 -0 -0 -0 -0 -0 -0 -0 0 0 0 -0 -0 0 0 0 -0 0 0 0 -0 0 -0 -0 -0 -0 -0 0 -0
-0 -0 -0 -0 -0 -0 -0 -0 -0 -0 -0 -0 -0 -0 -0 -0 -0 -0 -0 -0 -0 -0 -0 -0 -0 -0 0 -0 -0 -0 -0 -0 -0 -0 -0 0 0 0 0 0 -0 0 -0 -0 -0 -0 0
-0 -0 -0 -0 -0 -0 -0 -0 -0 -0 -0 -0 -0 -0 -0 -0 -0 -0 -0 -0 -0 -0 -0 -0 0 0 0 -0 -0 -0 -0 -0 -0 -0 -0 0 -0 0 -0 0 0 0 -0 -0 -0 -0 0
-0 -0 -0 -0 -0 -0 -0 -0 -0 -0 -0 -0 -0 -0 -0 -0 -0 -0 -0 -0 -0 -0 -0 -0 0 0 0 0 0 -0 -0 -0 -0 -0 -0 -0 0 0 -0 0 -0 0 0 -0 -0 -0 -0
-0 -0 -0 -0 -0 -0 -0 -0 -0 -0 -0 -0 -0 -0 -0 -0 -0 -0 -0 -0 -0 -0 -0 0 -0 0 -0 0 -0 -0 -0 -0 -0 -0 -0 -0 -0 -0 -0 0 -0 0 0 0 0 -0 -0
-0 -0 -0 -0 -0 -0 -0 -0 -0 -0 -0 -0 -0 -0 -0 -0 -0 -0 -0 -0 0 -0 0 0 -0 -0 -0 -0 -0 -0 -0 -0 -0 -0 -0 -0 -0 0 0 -0 -0 -0 0 0 -0 -0 -0
-0 -0 -0 -0 -0 -0 -0 -0 -0 -0 -0 -0 -0 -0 -0 -0 -0 -0 -0 0 0 -0 0 0 -0 -0 -0 -0 -0 -0 -0 -0 -0 -0 -0 -0 -0 -0 -0 -0 -0 -0 0 0 0 0 0
-0 -0 -0 -0 -0 -0 -0 -0 0 -0 -0 -0 0 -0 -0 -0 -0 -0 0 0 0 0 0 -0 -0 -0 -0 -0 -0 -0 -0 -0 -0 -0 -0 -0 -0 0 0 -0 -0 -0 0 0 0 0 -0
0 -0 -0 -0 -0 -0 0 -0 -0 -0 -0 -0 -0 -0 0 -0 -0 0 -0 -0 0 0 0 -0 -0 0 0 -0 -0 -0 -0 -0 -0 -0 -0 -0 0 0 -0 -0 -0 0 0 -0 0 -0 0
0 0 0 -0 -0 -0 -0 -0 -0 -0 -0 0 0 -0 0 -0 0 0 -0 0 0 0 0 -0 -0 -0 0 -0 0 -0 -0 -0 -0 0 0 0 -0 0 -0 -0 0 0 0 -0 0 0 0
0 0 0 0 0 -0 -0 -0 -0 -0 -0 0 0 0 0 0 0 0 0 0 0 -0 0 0 -0 0 -0 -0 -0 -0 0 -0 0 -0 -0 0 0 0 0 -0 -0 -0 0 0 0 -0 0
0 0 0 0 0 0 0 -0 -0 -0 -0 -0 -0 0 -0 0 -0 -0 0 0 0 0 0 0 0 0 -0 -0 0 0 -0 -0 0 0 0 0 0 -0 0 -0 0 0 0 -0 -0 0 0
0 0 0 0 0 0 0 0 -0 -0 -0 -0 -0 -0 0 0 0 0 0 0 0 -0 0 0 0 0 -0 -0 -0 0 -0 -0 -0 -0 0 0 0 -0 0 -0 -0 -0 -0 -0 0 0 0
0 0 0 0 0 0 0 0 0 -0 -0 -0 -0 -0 0 0 0 0 0 0 0 -0 0 0 0 -0 -0 0 -0 0 -0 -0 -0 0 0 -0 -0 -0 0 0 0 0 0 0 -0 0 -0
0 0 0 0 0 0 0 0 0 0 0 -0 -0 0 0 0 -0 0 0 0 -0 0 0 0 0 -0 -0 -0 -0 0 -0 -0 -0 -0 0 0 0 0 0 0 -0 -0 -0 -0 0 -0 0
0 0 0 0 0 0 0 0 0 0 0 0 0 0 0 0 0 0 0 -0 0 0 0 0 0 0 -0 -0 -0 -0 -0 -0 0 -0 -0 0 -0 0 0 0 0 0 0 0 -0 0 0
0 0 0 0 0 0 0 0 0 0 0 0 0 0 0 0 0 0 0 0 -0 0 0 0 0 -0 0 0 0 0 0 0 0 0 -0 0 0 0 0 0 0 0 -0 -0 -0 -0 0
-0 -0 -0 -0 0 0 0 0 0 0 0 0 0 0 0 0 0 0 0 0 0 0 0 0 0 0 0 0 0 0 0 0 0 0 0 0 0 0 0 0 -0 -0 0 0 0 0 -0
-0 0 -0 -0 -0 -0 0 0 0 0 0 0 0 0 0 0 0 0 0 0 0 0 0 0 0 0 0 0 0 0 0 0 0 0 0 0 0 -0 -0 0 0 0 0 0 -0 0 -0
-0 -0 -0 -0 -0 -0 -0 -0 0 0 0 0 0 0 0 0 0 0 0 0 0 0 0 0 0 0 0 0 0 0 0 0 0 0 0 0 0 -0 -0 -0 0 0 0 0 -0 0 0
-0 -0 -0 -0 -0 -0 -0 -0 -0 -0 0 0 0 0 0 0 0 0 0 0 0 0 0 0 0 0 0 0 0 0 0 0 0 0 0 0 0 0 0 0 0 0 0 -0 0 0 0
-0 -0 -0 -0 -0 -0 -0 -0 -0 -0 -0 0 0 0 0 0 0 0 0 0 0 0 0 0 0 0 0 0 0 0 -0 0 0 0 0 0 0 0 0 0 -0 0 0 0 -0 0 0
-0 -0 -0 -0 -0 -0 -0 -0 -0 -0 -0 0 0 0 0 0 0 0 0 0 0 0 0 0 0 0 0 0 0 0 0 0 0 0 0 0 0 0 0 -0 0 0 0 0 0 0 0
-0 -0 -0 -0 -0 -0 -0 -0 -0 -0 -0 0 0 0 0 0 0 0 0 0 0 0 0 0 0 0 0 0 0 0 0 0 0 0 0 0 0 0 0 0 0 0 0 0 0 0 0
-0 -0 -0 -0 -0 -0 -0 -0 -0 -0 -0 0 0 0 0 0 0 0 0 0 0 0 0 0 0 0 0 0 0 0 0 0 0 0 0 0 0 0 0 0 0 0 0 0 0 0 -0
-0 -0 -0 -0 -0 -0 -0 -0 -0 -0 -0 0 0 0 0 0 0 0 0 0 0 0 -0 -0 -0 0 0 0 0 0 0 0 0 0 0 0 0 0 0 0 0 0 0 -0 0 0 0
-0 -0 -0 -0 -0 -0 -0 -0 -0 -0 -0 0 0 0 0 0 0 0 0 0 0 0 0 0 0 0 0 0 0 0 0 0 0 0 0 0 0 0 0 0 0 0 0 0 -0 1 1
-0 -0 -0 -0 -0 -0 -0 -0 -0 -0 -0 0 0 0 0 0 0 0 0 0 0 0 0 0 0 0 0 0 0 0 0 0 0 0 0 1 1 0 0 0 0 0 1 2 3 2 2
-0 -0 -0 -0 -0 -0 -0 -0 -0 -0 0 0 0 0 0 0 0 0 0 0 0 0 0 0 0 0 0 0 0 0 0 0 0 0 0 0 0 0 0 0 0 0 0 0 1 1 2
Wind_Speed_500mb
27 26 25 24 24 23 21 21 20 19 17 14 12 10 10 8 8 8 9 11 11 10 8 9 10 11 13 15 9 4 14 16 15 16 18 25 16 32 30 25 20 28 15 29 18 15 20
29 28 27 26 24 23 23 22 21 20 18 17 14 12 11 10 8 9 9 11 12 10 9 9 9 12 12 26 9 5 13 17 17 13 20 21 27 29 28 27 23 7 16 26 16 19 13
33 31 29 28 27 25 24 23 22 21 20 18 16 14 12 10 10 11 10 11 11 11 10 10 8 12 15 17 8 8 18 16 22 20 29 19 19 26 28 29 7 11 12 18 25 20 13
34 33 32 31 29 28 26 24 23 22 21 20 19 16 14 11 9 11 11 10 10 11 10 10 9 10 16 13 11 18 25 23 23 26 27 24 25 31 32 18 31 24 21 12 28 26 25
33 33 33 32 31 29 29 27 25 24 23 22 20 18 16 12 9 10 11 9 9 10 10 10 4 13 30 17 22 25 29 26 23 26 28 30 28 33 35 19 5 8 6 28 32 31 26
32 32 32 33 32 32 31 30 29 27 25 24 22 20 17 13 9 9 10 9 9 11 10 11 16 15 36 31 23 28 30 26 24 24 29 35 36 7 16 17 11 18 12 22 38 53 20
33 34 32 32 33 33 33 32 31 30 28 26 23 21 17 13 10 11 12 9 8 10 29 31 34 34 12 19 26 31 30 27 26 29 28 36 25 12 28 23 28 21 33 10 23 12 36
32 32 34 35 33 33 35 33 33 32 31 27 24 21 18 13 11 16 22 16 19 16 20 53 52 43 25 24 26 30 31 31 33 28 34 32 32 8 33 33 16 25 15 9 9 29 25
34 34 35 34 36 35 35 35 34 34 32 30 25 21 18 13 10 19 26 32 22 17 29 39 59 49 35 28 36 37 39 37 34 30 34 33 15 26 29 36 26 13 2 20 12 17 12
33 34 35 36 35 36 36 35 35 34 34 32 27 20 17 8 2 5 25 18 21 15 15 38 57 52 51 42 43 41 43 41 33 36 33 30 22 20 40 34 24 12 11 20 8 17 14
37 36 34 36 37 37 37 36 36 35 34 33 30 22 16 11 9 14 8 7 10 12 12 32 44 27 54 56 24 46 39 37 41 36 27 35 32 26 23 27 23 23 10 24 21 20 25
35 37 37 36 36 37 38 38 37 37 35 34 32 25 16 15 24 20 4 9 7 13 23 17 21 22 37 56 45 40 48 42 40 39 37 40 45 22 34 15 12 23 24 33 36 16 8
35 36 37 37 37 36 37 38 38 38 37 34 32 28 19 22 14 11 13 13 12 20 14 19 28 26 34 37 40 39 31 35 30 32 32 38 42 33 27 29 30 28 30 25 18 12 11
36 36 37 38 38 38 38 37 38 38 38 35 30 29 26 26 20 14 13 18 21 26 32 8 19 26 32 34 35 45 32 30 40 40 36 28 28 47 37 35 33 34 28 15 33 6 21
37 38 37 37 38 38 39 39 37 37 39 35 26 20 23 16 33 21 28 23 22 33 19 5 12 27 30 35 26 39 38 34 35 39 39 35 37 21 8 39 38 33 25 37 37 55 35
37 37 37 37 37 38 40 40 39 35 35 35 24 15 27 19 26 25 22 36 39 47 13 25 26 20 24 35 38 34 36 34 35 34 41 35 34 28 14 14 25 26 25 21 26 27 22
38 38 36 37 37 38 39 41 41 36 30 26 16 13 27 22 25 30 26 37 41 56 12 15 31 34 25 30 33 34 28 33 28 29 30 30 26 35 29 13 26 26 29 28 33 29 25
37 38 37 37 37 37 37 39 41 39 27 18 13 17 21 28 26 29 28 41 53 48 22 16 32 28 34 25 32 25 26 30 35 20 27 27 23 26 36 23 31 35 31 22 19 23 27
36 38 39 39 38 38 36 37 39 40 35 26 12 25 15 29 15 24 36 43 50 45 32 23 24 29 29 26 27 25 17 17 26 11 8 12 18 23 33 27 25 20 28 26 38 29 32
36 37 39 39 40 39 38 35 34 37 28 22 13 8 19 30 39 39 32 35 39 53 44 27 29 30 24 22 25 30 23 19 20 15 11 12 26 33 27 28 14 6 23 32 31 24 24
37 37 39 40 40 40 38 36 32 30 20 17 12 16 34 11 26 33 37 37 29 35 29 32 30 32 30 27 30 33 28 28 28 23 12 14 31 35 39 40 16 26 12 47 33 23 28
36 38 41 42 41 40 40 39 35 26 12 9 19 19 38 42 30 16 27 34 35 38 24 27 28 30 32 35 36 38 39 22 28 29 26 29 28 30 36 40 39 26 31 29 30 23 23
35 36 40 43 42 40 39 39 39 33 10 9 24 18 21 27 25 21 22 24 27 34 37 20 17 22 24 26 31 41 34 39 38 15 30 30 27 26 33 36 33 34 37 29 31 27 27
33 35 38 42 45 43 40 38 36 34 28 15 23 26 21 19 25 24 15 20 22 15 14 27 19 16 27 31 36 37 40 38 39 38 24 25 25 21 25 27 32 37 10 10 47 37 16
32 33 36 40 43 45 43 38 35 32 26 16 21 19 19 16 37 24 28 15 21 32 18 30 37 20 14 26 21 23 26 36 44 43 28 35 24 19 21 29 39 46 32 8 10 17 60
32 32 35 37 39 41 43 41 36 34 30 15 13 15 14 21 18 24 29 24 20 23 28 38 38 11 16 18 21 27 26 34 37 43 43 31 24 19 27 34 41 27 21 44 34 31 27
32 32 33 36 36 39 41 40 39 35 30 24 2 25 15 24 14 21 21 20 28 26 18 19 13 8 23 18 22 26 29 35 34 34 34 33 26 29 30 35 32 38 17 5 18 2 27
32 31 32 32 32 34 38 41 38 37 34 24 4 22 20 18 38 23 18 21 26 23 18 33 14 13 19 21 21 24 26 29 21 22 5 12 6 20 22 34 33 40 16 12 15 12 13
32 32 31 31 31 33 36 39 40 36 32 27 16 21 23 26 35 39 39 33 29 23 20 23 29 16 13 13 8 12 24 24 24 15 9 13 10 12 20 2 8 22 18 20 19 10 7
Wind_Direction_500mb
33 29 27 26 23 22 21 19 16 13 11 7 350 334 314 298 289 273 259 257 257 249 250 263 281 290 298 278 238 240 182 187 194 185 246 264 228 226 226 20 331 285 62 110 124 150 149
33 29 25 21 21 18 15 15 13 9 6 2 354 335 317 300 283 270 261 258 260 257 254 255 268 282 295 273 274 208 184 188 180 188 238 292 323 334 320 180 189 310 148 124 169 100 133
31 30 26 21 17 14 13 10 8 4 0 357 352 341 321 299 282 268 255 253 256 247 250 258 265 286 271 268 257 238 188 199 193 242 270 305 310 305 311 332 273 247 185 174 142 171 172
28 26 24 22 18 13 8 5 3 359 355 351 348 343 326 307 274 261 256 254 251 247 237 244 257 282 263 204 197 200 199 217 230 252 270 290 296 298 282 266 38 340 58 332 296 186 135
21 20 19 18 15 11 6 3 360 355 352 348 344 341 332 313 276 245 250 250 243 245 248 235 221 293 268 230 205 212 210 219 235 253 263 274 281 279 45 351 26 182 186 234 331 242 159
12 13 11 9 8 6 4 0 356 353 349 345 343 340 333 319 277 234 224 228 236 236 238 252 232 266 239 221 211 206 210 223 241 253 260 259 260 220 156 229 234 155 196 187 199 267 228
3 2 3 1 359 359 357 355 353 350 348 344 341 337 331 316 271 225 202 189 251 242 211 217 205 215 138 227 184 202 206 221 244 249 261 251 250 228 202 254 260 278 210 216 245 123 262
357 356 354 353 352 352 349 349 346 346 344 343 339 333 327 314 262 224 212 215 307 318 280 231 247 236 247 190 197 208 199 217 224 239 229 242 243 82 329 277 276 295 7 332 284 168 270
351 350 349 347 345 345 344 341 340 341 340 338 338 330 322 314 266 239 229 238 308 302 281 266 217 228 208 204 221 205 203 217 242 228 261 259 242 145 251 275 273 89 96 222 215 272 227
346 346 344 343 342 339 338 336 335 335 334 334 332 328 314 307 245 240 246 259 265 292 278 245 201 219 219 215 241 242 200 221 230 258 255 267 251 198 225 258 289 279 272 294 183 273 239
342 342 342 339 338 336 334 332 331 330 329 328 326 323 305 257 240 224 32 209 239 265 274 144 181 200 207 208 227 213 224 211 244 236 239 260 275 239 236 270 280 294 304 292 282 273 121
341 340 340 340 338 335 332 331 328 327 324 323 320 314 297 273 240 195 221 249 263 234 246 162 140 192 193 209 219 261 204 215 234 249 270 271 272 286 279 295 228 281 289 267 253 258 238
344 342 340 339 339 338 334 330 327 326 322 317 312 302 276 243 188 235 250 224 222 247 170 173 177 195 210 201 215 237 186 214 223 234 248 255 261 261 259 274 267 251 253 263 250 237 299
348 345 343 340 339 338 337 332 327 325 321 312 306 294 269 234 212 262 210 223 245 238 255 90 185 189 204 214 205 224 209 224 221 243 268 231 239 222 221 228 250 265 301 298 276 22 268
349 345 344 343 342 340 338 335 330 327 323 313 311 302 270 225 215 192 214 221 224 259 327 312 209 185 200 212 213 220 216 236 223 210 241 266 269 296 234 218 221 248 247 249 276 227 229
352 347 345 345 344 343 340 338 333 330 327 318 313 258 247 199 202 186 220 238 239 248 336 323 284 208 225 201 209 218 216 223 249 234 216 248 273 282 302 264 262 263 284 288 281 278 278
354 350 349 347 347 346 344 340 336 334 333 319 301 236 148 170 171 205 222 233 245 264 277 265 281 284 267 253 207 223 227 238 222 240 240 242 239 268 268 212 255 229 244 249 272 283 295
356 353 351 351 350 349 349 345 341 339 345 329 269 260 174 172 194 221 231 239 259 273 231 244 270 291 301 304 274 236 230 236 223 221 230 223 262 236 260 227 221 243 243 253 238 258 259
358 355 354 354 352 352 352 349 346 343 345 345 263 223 177 191 226 229 229 247 252 259 256 264 240 264 269 295 293 291 272 257 130 171 343 270 222 260 267 253 195 231 249 258 275 259 267
358 359 356 356 354 356 355 352 349 342 341 332 284 236 159 210 240 268 270 240 237 245 262 244 283 279 285 277 271 279 270 182 163 192 80 311 280 271 257 242 48 267 252 245 257 274 295
358 1 358 357 357 358 359 355 352 345 337 329 241 262 358 200 218 234 257 270 265 240 231 232 259 268 272 269 265 268 248 280 169 148 215 234 254 277 287 290 277 275 209 272 238 267 289
359 3 3 0 359 1 2 1 1 356 349 342 330 346 340 301 295 299 245 250 270 278 256 228 221 257 268 245 257 276 277 273 255 176 204 221 242 256 274 287 292 271 268 274 270 286 291
1 6 8 7 3 3 5 6 6 11 10 359 351 325 297 290 279 269 258 269 242 256 271 295 289 274 285 267 331 313 303 305 257 310 217 211 245 247 254 269 272 266 269 268 262 272 285
1 5 6 10 9 7 7 8 8 13 22 22 353 330 286 281 268 272 293 272 265 275 308 281 274 265 288 322 311 292 276 275 278 281 276 248 220 253 276 297 271 278 71 18 328 322 325
359 360 1 5 5 8 8 9 7 7 9 33 16 345 320 299 308 338 349 273 289 286 271 273 280 301 304 301 285 266 262 266 262 265 253 278 302 283 256 254 267 278 301 19 144 290 286
356 354 355 359 1 2 5 8 8 4 3 14 42 347 313 297 29 350 324 320 305 286 253 226 244 244 291 275 261 245 252 254 243 241 251 251 253 269 272 265 266 292 55 342 324 311 340
352 353 352 355 358 0 3 3 5 5 5 5 43 344 327 295 288 356 341 331 317 325 298 323 249 189 239 253 258 256 255 238 256 254 233 230 232 239 250 244 255 332 34 12 220 289 345
346 349 350 350 353 357 2 3 2 1 0 9 288 340 352 303 293 303 311 305 313 293 298 358 290 240 258 249 249 265 269 275 280 299 53 13 302 302 303 257 226 10 0 13 355 348 2
342 342 342 343 343 345 351 355 359 357 354 352 334 319 322 292 266 296 285 272 263 272 309 310 324 313 358 312 317 291 277 284 295 286 253 178 195 182 244 75 136 34 22 360 339 345 10
Wind_Speed_850mb
27 26 25 24 24 23 21 21 20 19 17 14 12 10 10 8 8 8 9 11 11 10 8 9 10 11 13 15 9 4 14 16 15 16 18 25 16 32 30 25 20 28 15 29 18 15 20
29 28 27 26 24 23 23 22 21 20 18 17 14 12 11 10 8 9 9 11 12 10 9 9 9 12 12 26 9 5 13 17 17 13 20 21 27 29 28 27 23 7 16 26 16 19 13
33 31 29 28 27 25 24 23 22 21 20 18 16 14 12 10 10 11 10 11 11 11 10 10 8 12 15 17 8 8 18 16 22 20 29 19 19 26 28 29 7 11 12 18 25 20 13
34 33 32 31 29 28 26 24 23 22 21 20 19 16 14 11 9 11 11 10 10 11 10 10 9 10 16 13 11 18 25 23 23 26 27 24 25 31 32 18 31 24 21 12 28 26 25
33 33 33 32 31 29 29 27 25 24 23 22 20 18 16 12 9 10 11 9 9 10 10 10 4 13 30 17 22 25 29 26 23 26 28 30 28 33 35 19 5 8 6 28 32 31 26
32 32 32 33 32 32 31 30 29 27 25 24 22 20 17 13 9 9 10 9 9 11 10 11 16 15 36 31 23 28 30 26 24 24 29 35 36 7 16 17 11 18 12 22 38 53 20
33 34 32 32 33 33 33 32 31 30 28 26 23 21 17 13 10 11 12 9 8 10 29 31 34 34 12 19 26 31 30 27 26 29 28 36 25 12 28 23 28 21 33 10 23 12 36
32 32 34 35 33 33 35 33 33 32 31 27 24 21 18 13 11 16 22 16 19 16 20 53 52 43 25 24 26 30 31 31 33 28 34 32 32 8 33 33 16 25 15 9 9 29 25
34 34 35 34 36 35 35 35 34 34 32 30 25 21 18 13 10 19 26 32 22 17 29 39 59 49 35 28 36 37 39 37 34 30 34 33 15 26 29 36 26 13 2 20 12 17 12
33 34 35 36 35 36 36 35 35 34 34 32 27 20 17 8 2 5 25 18 21 15 15 38 57 52 51 42 43 41 43 41 33 36 33 30 22 20 40 34 24 12 11 20 8 17 14
37 36 34 36 37 37 37 36 36 35 34 33 30 22 16 11 9 14 8 7 10 12 12 32 44 27 54 56 24 46 39 37 41 36 27 35 32 26 23 27 23 23 10 24 21 20 25
35 37 37 36 36 37 38 38 37 37 35 34 32 25 16 15 24 20 4 9 7 13 23 17 21 22 37 56 45 40 48 42 40 39 37 40 45 22 34 15 12 23 24 33 36 16 8
35 36 37 37 37 36 37 38 38 38 37 34 32 28 19 22 14 11 13 13 12 20 14 19 28 26 34 37 40 39 31 35 30 32 32 38 42 33 27 29 30 28 30 25 18 12 11
36 36 37 38 38 38 38 37 38 38 38 35 30 29 26 26 20 14 13 18 21 26 32 8 19 26 32 34 35 45 32 30 40 40 36 28 28 47 37 35 33 34 28 15 33 6 21
37 38 37 37 38 38 39 39 37 37 39 35 26 20 23 16 33 21 28 23 22 33 19 5 12 27 30 35 26 39 38 34 35 39 39 35 37 21 8 39 38 33 25 37 37 55 35
37 37 37 37 37 38 40 40 39 35 35 35 24 15 27 19 26 25 22 36 39 47 13 25 26 20 24 35 38 34 36 34 35 34 41 35 34 28 14 14 25 26 25 21 26 27 22
38 38 36 37 37 38 39 41 41 36 30 26 16 13 27 22 25 30 26 37 41 56 12 15 31 34 25 30 33 34 28 33 28 29 30 30 26 35 29 13 26 26 29 28 33 29 25
37 38 37 37 37 37 37 39 41 39 27 18 13 17 21 28 26 29 28 41 53 48 22 16 32 28 34 25 32 25 26 30 35 20 27 27 23 26 36 23 31 35 31 22 19 23 27
36 38 39 39 38 38 36 37 39 40 35 26 12 25 15 29 15 24 36 43 50 45 32 23 24 29 29 26 27 25 17 17 26 11 8 12 18 23 33 27 25 20 28 26 38 29 32
36 37 39 39 40 39 38 35 34 37 28 22 13 8 19 30 39 39 32 35 39 53 44 27 29 30 24 22 25 30 23 19 20 15 11 12 26 33 27 28 14 6 23 32 31 24 24
37 37 39 40 40 40 38 36 32 30 20 17 12 16 34 11 26 33 37 37 29 35 29 32 30 32 30 27 30 33 28 28 28 23 12 14 31 35 39 40 16 26 12 47 33 23 28
36 38 41 42 41 40 40 39 35 26 12 9 19 19 38 42 30 16 27 34 35 38 24 27 28 30 32 35 36 38 39 22 28 29 26 29 28 30 36 40 39 26 31 29 30 23 23
35 36 40 43 42 40 39 39 39 33 10 9 24 18 21 27 25 21 22 24 27 34 37 20 17 22 24 26 31 41 34 39 38 15 30 30 27 26 33 36 33 34 37 29 31 27 27
33 35 38 42 45 43 40 38 36 34 28 15 23 26 21 19 25 24 15 20 22 15 14 27 19 16 27 31 36 37 40 38 39 38 24 25 25 21 25 27 32 37 10 10 47 37 16
32 33 36 40 43 45 43 38 35 32 26 16 21 19 19 16 37 24 28 15 21 32 18 30 37 20 14 26 21 23 26 36 44 43 28 35 24 19 21 29 39 46 32 8 10 17 60
32 32 35 37 39 41 43 41 36 34 30 15 13 15 14 21 18 24 29 24 20 23 28 38 38 11 16 18 21 27 26 34 37 43 43 31 24 19 27 34 41 27 21 44 34 31 27
32 32 33 36 36 39 41 40 39 35 30 24 2 25 15 24 14 21 21 20 28 26 18 19 13 8 23 18 22 26 29 35 34 34 34 33 26 29 30 35 32 38 17 5 18 2 27
32 31 32 32 32 34 38 41 38 37 34 24 4 22 20 18 38 23 18 21 26 23 18 33 14 13 19 21 21 24 26 29 21 22 5 12 6 20 22 34 33 40 16 12 15 12 13
32 32 31 31 31 33 36 39 40 36 32 27 16 21 23 26 35 39 39 33 29 23 20 23 29 16 13 13 8 12 24 24 24 15 9 13 10 12 20 2 8 22 18 20 19 10 7
Wind_Direction_850mb
33 29 27 26 23 22 21 19 16 13 11 7 350 334 314 298 289 273 259 257 257 249 250 263 281 290 298 278 238 240 182 187 194 185 246 264 228 226 226 20 331 285 62 110 124 150 149
33 29 25 21 21 18 15 15 13 9 6 2 354 335 317 300 283 270 261 258 260 257 254 255 268 282 295 273 274 208 184 188 180 188 238 292 323 334 320 180 189 310 148 124 169 100 133
31 30 26 21 17 14 13 10 8 4 0 357 352 341 321 299 282 268 255 253 256 247 250 258 265 286 271 268 257 238 188 199 193 242 270 305 310 305 311 332 273 247 185 174 142 171 172
28 26 24 22 18 13 8 5 3 359 355 351 348 343 326 307 274 261 256 254 251 247 237 244 257 282 263 204 197 200 199 217 230 252 270 290 296 298 282 266 38 340 58 332 296 186 135
21 20 19 18 15 11 6 3 360 355 352 348 344 341 332 313 276 245 250 250 243 245 248 235 221 293 268 230 205 212 210 219 235 253 263 274 281 279 45 351 26 182 186 234 331 242 159
12 13 11 9 8 6 4 0 356 353 349 345 343 340 333 319 277 234 224 228 236 236 238 252 232 266 239 221 211 206 210 223 241 253 260 259 260 220 156 229 234 155 196 187 199 267 228
3 2 3 1 359 359 357 355 353 350 348 344 341 337 331 316 271 225 202 189 251 242 211 217 205 215 138 227 184 202 206 221 244 249 261 251 250 228 202 254 260 278 210 216 245 123 262
357 356 354 353 352 352 349 349 346 346 344 343 339 333 327 314 262 224 212 215 307 318 280 231 247 236 247 190 197 208 199 217 224 239 229 242 243 82 329 277 276 295 7 332 284 168 270
351 350 349 347 345 345 344 341 340 341 340 338 338 330 322 314 266 239 229 238 308 302 281 266 217 228 208 204 221 205 203 217 242 228 261 259 242 145 251 275 273 89 96 222 215 272 227
346 346 344 343 342 339 338 336 335 335 334 334 332 328 314 307 245 240 246 259 265 292 278 245 201 219 219 215 241 242 200 221 230 258 255 267 251 198 225 258 289 279 272 294 183 273 239
342 342 342 339 338 336 334 332 331 330 329 328 326 323 305 257 240 224 32 209 239 265 274 144 181 200 207 208 227 213 224 211 244 236 239 260 275 239 236 270 280 294 304 292 282 273 121
341 340 340 340 338 335 332 331 328 327 324 323 320 314 297 273 240 195 221 249 263 234 246 162 140 192 193 209 219 261 204 215 234 249 270 271 272 286 279 295 228 281 289 267 253 258 238
344 342 340 339 339 338 334 330 327 326 322 317 312 302 276 243 188 235 250 224 222 247 170 173 177 195 210 201 215 237 186 214 223 234 248 255 261 261 259 274 267 251 253 263 250 237 299
348 345 343 340 339 338 337 332 327 325 321 312 306 294 269 234 212 262 210 223 245 238 255 90 185 189 204 214 205 224 209 224 221 243 268 231 239 222 221 228 250 265 301 298 276 22 268
349 345 344 343 342 340 338 335 330 327 323 313 311 302 270 225 215 192 214 221 224 259 327 312 209 185 200 212 213 220 216 236 223 210 241 266 269 296 234 218 221 248 247 249 276 227 229
352 347 345 345 344 343 340 338 333 330 327 318 313 258 247 199 202 186 220 238 239 248 336 323 284 208 225 201 209 218 216 223 249 234 216 248 273 282 302 264 262 263 284 288 281 278 278
354 350 349 347 347 346 344 340 336 334 333 319 301 236 148 170 171 205 222 233 245 264 277 265 281 284 267 253 207 223 227 238 222 240 240 242 239 268 268 212 255 229 244 249 272 283 295
356 353 351 351 350 349 349 345 341 339 345 329 269 260 174 172 194 221 231 239 259 273 231 244 270 291 301 304 274 236 230 236 223 221 230 223 262 236 260 227 221 243 243 253 238 258 259
358 355 354 354 352 352 352 349 346 343 345 345 263 223 177 191 226 229 229 247 252 259 256 264 240 264 269 295 293 291 272 257 130 171 343 270 222 260 267 253 195 231 249 258 275 259 267
358 359 356 356 354 356 355 352 349 342 341 332 284 236 159 210 240 268 270 240 237 245 262 244 283 279 285 277 271 279 270 182 163 192 80 311 280 271 257 242 48 267 252 245 257 274 295
358 1 358 357 357 358 359 355 352 345 337 329 241 262 358 200 218 234 257 270 265 240 231 232 259 268 272 269 265 268 248 280 169 148 215 234 254 277 287 290 277 275 209 272 238 267 289
359 3 3 0 359 1 2 1 1 356 349 342 330 346 340 301 295 299 245 250 270 278 256 228 221 257 268 245 257 276 277 273 255 176 204 221 242 256 274 287 292 271 268 274 270 286 291
1 6 8 7 3 3 5 6 6 11 10 359 351 325 297 290 279 269 258 269 242 256 271 295 289 274 285 267 331 313 303 305 257 310 217 211 245 247 254 269 272 266 269 268 262 272 285
1 5 6 10 9 7 7 8 8 13 22 22 353 330 286 281 268 272 293 272 265 275 308 281 274 265 288 322 311 292 276 275 278 281 276 248 220 253 276 297 271 278 71 18 328 322 325
359 360 1 5 5 8 8 9 7 7 9 33 16 345 320 299 308 338 349 273 289 286 271 273 280 301 304 301 285 266 262 266 262 265 253 278 302 283 256 254 267 278 301 19 144 290 286
356 354 355 359 1 2 5 8 8 4 3 14 42 347 313 297 29 350 324 320 305 286 253 226 244 244 291 275 261 245 252 254 243 241 251 251 253 269 272 265 266 292 55 342 324 311 340
352 353 352 355 358 0 3 3 5 5 5 5 43 344 327 295 288 356 341 331 317 325 298 323 249 189 239 253 258 256 255 238 256 254 233 230 232 239 250 244 255 332 34 12 220 289 345
346 349 350 350 353 357 2 3 2 1 0 9 288 340 352 303 293 303 311 305 313 293 298 358 290 240 258 249 249 265 269 275 280 299 53 13 302 302 303 257 226 10 0 13 355 348 2
342 342 342 343 343 345 351 355 359 357 354 352 334 319 322 292 266 296 285 272 263 272 309 310 324 313 358 312 317 291 277 284 295 286 253 178 195 182 244 75 136 34 22 360 339 345 10